Wind_Speed
28 26 24 21 19 16 14 12 12 16 17 21 21 21 20 21 21 20 17 17 14 11 14 16 17 19 20 19 19 20 20 20 19 18 18 15 15 16 17 17 17 16 13
32 27 24 21 18 15 13 13 14 19 19 20 22 22 22 23 23 19 18 15 12 14 16 17 19 19 18 17 18 20 19 19 17 15 13 13 15 15 15 13 14 15 13
32 28 25 21 18 16 15 14 18 20 20 18 20 21 21 22 21 19 16 13 13 17 18 19 20 19 18 18 20 19 18 15 13 13 12 13 14 14 13 12 12 13 13
30 28 25 21 20 18 14 16 21 20 18 15 18 19 20 20 19 16 12 12 18 19 19 19 19 18 17 17 18 18 16 15 14 14 14 14 14 15 14 14 13 11 10
29 27 24 21 19 16 14 18 22 20 17 14 15 17 19 19 17 12 11 19 22 21 20 19 18 17 16 16 16 15 14 14 14 13 13 14 14 15 15 14 13 12 11
27 24 22 20 17 14 15 21 23 19 16 15 16 17 18 18 16 18 22 22 22 21 19 18 17 15 14 13 13 12 11 11 11 12 12 13 13 14 14 14 14 13 12
25 23 21 18 16 14 17 23 22 17 16 17 17 20 22 23 24 23 23 22 21 20 19 17 15 13 10 9 9 8 8 8 8 9 11 11 12 12 13 13 13 13 12
24 22 21 17 14 14 18 24 23 16 15 16 17 20 21 23 23 23 22 20 19 18 17 15 13 11 9 6 5 5 6 6 6 7 9 11 11 12 12 12 12 12 12
22 21 19 16 12 14 16 23 22 18 15 13 15 17 19 20 21 20 20 18 17 16 15 13 11 9 7 5 4 1 3 4 4 6 7 9 11 11 11 11 11 11 11
20 20 19 16 13 13 16 21 22 20 18 13 12 15 17 17 17 17 17 16 14 13 12 10 9 7 5 4 3 2 1 3 4 5 6 7 9 10 10 10 10 10 10
20 18 18 14 13 12 14 19 21 21 19 16 13 12 16 16 15 15 14 13 11 10 9 8 7 6 5 3 2 2 3 4 5 5 6 7 8 9 9 9 10 10 10
21 20 16 14 12 11 12 17 20 21 20 18 15 14 13 13 13 12 11 11 10 9 7 6 6 5 4 3 2 2 3 4 6 6 5 6 7 8 9 9 10 10 10
25 18 16 13 12 11 9 15 18 20 19 18 16 15 13 13 13 12 9 8 8 8 7 7 6 5 4 3 3 3 3 4 5 5 4 5 6 8 9 9 10 10 11
32 13 9 11 11 11 10 9 15 17 20 19 17 16 14 12 12 11 9 7 8 8 8 8 7 5 5 4 3 2 3 2 3 4 5 6 6 7 9 10 12 12 12
36 28 34 14 15 12 13 11 13 16 17 16 16 16 15 14 12 10 8 9 8 8 7 7 7 6 5 5 5 4 4 4 5 6 5 6 7 8 9 10 12 13 14
31 19 27 33 19 19 13 14 13 14 14 16 17 16 16 14 12 11 10 9 9 7 7 7 7 7 6 6 6 7 7 8 8 7 7 8 10 12 13 12 12 14 15
30 14 26 37 18 23 18 16 15 15 14 14 14 14 14 14 13 11 10 10 9 9 8 8 7 7 7 8 9 10 9 8 9 10 13 13 14 15 17 15 13 14 14
33 26 30 29 28 33 30 19 19 17 20 18 19 15 13 13 11 12 13 12 11 10 9 8 7 7 9 10 10 9 11 12 13 15 17 18 19 17 18 18 16 17 14
30 32 31 30 33 31 32 30 26 32 26 24 21 20 17 16 13 14 15 15 13 12 11 9 8 9 9 11 13 14 15 18 19 20 23 22 22 22 22 21 17 16 16
32 34 30 33 34 38 40 33 23 23 35 27 27 23 23 20 19 16 14 15 15 15 13 11 8 10 13 14 17 19 19 20 21 24 24 22 23 22 20 20 18 16 16
28 29 35 32 29 33 33 36 37 36 30 32 30 28 23 23 21 16 15 13 14 13 11 9 12 13 15 16 20 21 21 22 27 28 23 22 20 19 19 17 14 17 16
26 31 31 31 34 36 38 38 38 34 33 34 31 29 27 25 21 22 19 15 13 13 12 14 15 15 17 17 19 22 27 29 23 7 13 16 17 17 10 11 15 14 14
20 24 29 31 33 31 32 31 29 29 31 32 30 30 29 27 26 23 21 19 17 16 17 17 19 19 19 21 20 21 15 11 21 24 11 15 18 20 20 14 14 14 14
20 21 19 22 23 24 25 26 26 29 26 25 27 26 27 28 25 23 21 18 16 18 20 22 22 22 22 24 25 26 26 26 25 18 10 11 11 11 14 17 17 17 17
21 22 21 20 21 23 24 25 27 29 26 23 23 21 22 24 23 20 18 14 17 22 26 26 25 25 23 24 25 25 26 24 24 24 25 26 21 17 14 17 19 21 22
24 25 24 24 24 24 23 24 25 27 27 26 27 21 17 20 22 20 20 18 19 26 27 27 26 23 23 24 24 23 23 23 22 21 21 22 23 20 19 19 21 19 23
Wind_Direction
176 171 167 168 163 157 151 147 130 132 122 131 127 126 134 141 139 137 136 132 122 108 111 113 112 113 111 104 97 91 98 96 94 86 78 73 68 69 68 64 61 57 66
163 169 166 166 162 159 159 149 137 135 125 136 131 129 133 134 135 135 134 130 115 119 120 119 118 115 108 102 98 95 94 93 90 87 80 74 66 66 70 73 73 65 63
164 165 165 164 161 158 158 150 144 141 138 137 146 144 136 135 135 132 139 129 121 123 122 121 119 115 108 100 101 96 91 87 79 70 61 55 54 55 57 56 62 72 56
163 163 163 165 163 161 163 150 149 146 146 143 151 159 159 155 148 155 141 130 130 126 124 121 118 113 107 102 99 97 90 82 73 65 63 58 55 53 49 48 48 50 56
164 163 162 164 166 169 165 154 154 149 149 145 146 155 164 167 168 170 150 137 130 128 125 123 118 111 105 99 96 93 87 80 75 70 63 58 53 51 48 48 47 47 46
161 162 162 164 168 175 165 158 154 155 147 142 136 140 148 153 152 140 134 131 131 129 126 124 120 113 105 98 95 90 85 79 74 67 59 54 49 46 43 42 42 42 41
158 163 162 166 172 173 161 159 151 162 150 141 133 132 133 133 130 131 132 132 132 131 130 129 127 121 112 100 98 90 82 75 69 60 52 47 44 40 37 35 36 35 35
158 163 161 169 175 171 162 162 153 162 152 143 136 134 135 134 134 135 136 136 135 135 134 134 134 133 127 115 91 86 80 65 59 49 44 37 36 31 28 27 28 29 29
162 162 164 172 175 171 167 167 158 161 157 153 142 141 141 142 142 142 143 141 140 140 142 143 142 142 142 141 141 91 48 56 44 33 30 28 29 25 20 20 20 22 23
166 167 170 174 179 175 171 172 167 162 168 174 160 154 150 149 149 149 149 149 149 150 151 151 153 155 159 166 175 218 320 355 13 8 15 22 23 20 16 14 14 16 17
173 176 179 180 184 178 176 177 175 172 170 183 176 165 160 156 157 158 158 159 160 162 164 165 168 171 176 187 217 249 287 320 340 347 360 11 15 11 8 7 7 8 10
178 175 191 198 194 185 182 182 184 183 182 183 181 170 169 167 166 169 170 172 175 179 184 190 195 198 198 203 229 255 277 300 317 325 344 352 360 356 0 357 355 356 356
185 170 191 194 202 201 194 192 192 193 196 194 190 185 182 180 179 179 184 189 194 197 204 212 219 223 219 223 253 266 279 298 308 330 332 338 343 342 343 345 344 342 341
174 169 186 200 204 215 210 205 204 203 204 203 203 203 200 191 192 192 200 216 216 217 219 220 223 223 224 235 244 244 277 292 310 321 328 330 330 332 336 338 338 335 332
181 185 219 243 224 231 238 220 215 210 207 205 210 214 211 209 212 215 221 213 213 214 221 222 227 234 239 246 258 272 286 293 301 305 316 324 328 327 326 324 330 331 332
179 168 198 206 223 235 235 240 226 210 206 211 217 223 224 221 220 234 231 224 228 221 216 228 235 240 245 260 279 293 299 301 300 304 309 315 315 313 313 311 316 322 323
179 175 196 194 229 237 242 232 235 230 218 214 218 223 231 235 235 240 242 240 235 232 229 236 249 255 263 274 286 291 297 300 302 304 300 295 295 296 293 291 304 299 304
195 197 174 185 203 214 230 238 234 241 248 240 232 228 239 238 243 252 252 252 242 239 237 242 252 265 278 283 293 294 298 293 300 294 292 288 292 286 287 283 286 283 287
203 203 196 198 208 216 212 229 258 263 244 243 234 232 232 244 249 262 257 248 245 241 240 243 251 271 284 289 291 289 288 291 291 291 289 292 286 281 279 279 282 278 270
211 208 204 210 213 216 221 215 246 220 240 237 235 239 237 238 241 254 243 240 240 238 237 239 259 262 273 282 287 292 292 292 290 288 293 291 285 283 279 274 278 280 274
219 213 221 221 212 214 216 219 238 232 224 231 235 241 235 236 238 239 240 241 234 238 241 249 256 262 273 282 286 287 289 291 290 300 292 290 286 283 277 273 274 282 280
214 221 220 218 218 224 224 229 227 231 227 231 230 240 235 238 237 232 234 238 245 249 242 250 256 266 273 278 284 288 296 298 299 288 306 290 284 288 282 264 270 270 276
210 211 219 222 227 230 235 238 238 239 238 238 235 234 236 233 231 226 230 235 244 249 251 255 261 266 274 277 278 280 291 287 301 304 295 281 279 283 295 274 260 260 264
227 221 221 230 233 238 242 238 240 247 246 252 245 240 245 243 244 239 236 241 259 263 267 270 268 267 268 270 275 274 275 273 277 293 286 275 277 280 281 270 261 256 262
231 231 226 224 229 234 239 241 239 240 241 240 250 242 248 259 254 248 254 259 261 263 261 265 271 275 281 282 284 284 282 280 275 264 277 287 285 279 275 269 269 264 268
228 232 233 230 228 232 234 243 243 245 242 241 240 243 262 259 252 246 248 253 258 261 265 270 273 275 277 278 278 280 282 283 283 281 279 278 278 278 268 268 272 263 264
Height
1510 1515 1518 1522 1525 1526 1527 1528 1529 1530 1530 1532 1533 1535 1537 1538 1540 1542 1544 1545 1546 1547 1547 1547 1547 1548 1549 1549 1549 1549 1549 1550 1550 1550 1550 1549 1548 1547 1546 1546 1545 1544 1543
1508 1514 1519 1522 1525 1527 1528 1529 1531 1531 1532 1534 1536 1538 1540 1540 1542 1544 1545 1547 1548 1548 1549 1549 1550 1551 1551 1551 1552 1552 1552 1552 1552 1552 1552 1551 1550 1549 1549 1548 1548 1547 1546
1509 1514 1519 1523 1525 1528 1530 1530 1532 1533 1533 1535 1537 1539 1541 1543 1544 1546 1546 1548 1549 1549 1550 1552 1552 1553 1553 1553 1554 1554 1555 1555 1555 1554 1554 1553 1552 1551 1551 1550 1549 1549 1548
1511 1515 1520 1524 1526 1529 1531 1532 1534 1534 1535 1537 1538 1540 1542 1544 1546 1546 1548 1549 1550 1551 1552 1554 1555 1555 1555 1556 1556 1556 1557 1557 1557 1557 1556 1555 1555 1554 1553 1551 1550 1550 1549
1513 1517 1521 1525 1528 1530 1532 1534 1535 1537 1538 1539 1539 1540 1542 1544 1546 1547 1549 1550 1551 1553 1554 1555 1556 1557 1558 1558 1559 1559 1559 1559 1559 1559 1558 1558 1557 1556 1555 1554 1553 1552 1551
1515 1519 1524 1527 1529 1531 1533 1535 1537 1539 1539 1540 1541 1541 1542 1544 1546 1548 1550 1552 1554 1555 1556 1557 1558 1559 1559 1560 1561 1561 1561 1561 1561 1561 1561 1560 1559 1558 1557 1556 1555 1554 1553
1518 1522 1525 1529 1531 1533 1534 1537 1540 1541 1541 1542 1543 1543 1544 1546 1548 1550 1553 1555 1556 1557 1558 1559 1560 1560 1561 1562 1562 1562 1562 1563 1563 1562 1562 1561 1560 1559 1559 1558 1557 1555 1554
1520 1524 1527 1531 1532 1534 1535 1538 1541 1543 1544 1545 1546 1546 1547 1548 1550 1552 1554 1556 1558 1559 1560 1561 1561 1562 1563 1563 1563 1564 1564 1564 1564 1563 1563 1563 1562 1561 1560 1559 1558 1557 1556
1522 1526 1529 1532 1534 1536 1537 1540 1543 1545 1546 1547 1548 1549 1549 1550 1551 1553 1555 1557 1559 1560 1561 1562 1563 1563 1564 1564 1564 1564 1564 1565 1565 1564 1564 1563 1563 1562 1561 1560 1559 1558 1557
1524 1527 1530 1533 1535 1537 1538 1541 1544 1545 1547 1549 1550 1551 1552 1552 1553 1555 1556 1557 1559 1561 1562 1563 1564 1564 1565 1565 1565 1565 1565 1565 1565 1565 1564 1563 1563 1562 1561 1561 1560 1558 1558
1525 1528 1531 1534 1537 1538 1540 1542 1544 1546 1548 1549 1551 1552 1553 1554 1555 1556 1557 1558 1560 1561 1563 1563 1564 1565 1565 1565 1565 1565 1565 1565 1565 1564 1564 1563 1562 1562 1562 1561 1560 1559 1558
1523 1527 1531 1535 1537 1539 1541 1542 1545 1546 1548 1549 1551 1553 1554 1555 1556 1558 1558 1559 1560 1561 1562 1563 1563 1564 1565 1565 1565 1565 1565 1565 1565 1564 1564 1564 1563 1562 1562 1561 1560 1559 1558
1520 1527 1533 1535 1537 1540 1542 1543 1545 1546 1548 1550 1552 1553 1554 1555 1556 1558 1559 1559 1560 1561 1561 1562 1562 1563 1564 1564 1565 1564 1565 1564 1564 1564 1563 1563 1563 1562 1561 1561 1560 1559 1558
1509 1524 1532 1535 1538 1540 1542 1544 1545 1546 1548 1550 1551 1553 1554 1555 1556 1557 1558 1559 1559 1560 1561 1561 1561 1562 1562 1563 1563 1563 1563 1563 1563 1563 1563 1562 1562 1562 1561 1560 1559 1558 1557
1508 1516 1527 1534 1539 1541 1542 1543 1544 1546 1548 1549 1550 1552 1553 1554 1556 1556 1557 1557 1558 1558 1560 1560 1560 1561 1561 1562 1562 1562 1562 1562 1562 1561 1561 1561 1561 1561 1560 1559 1558 1556 1556
1510 1515 1521 1530 1538 1541 1541 1543 1545 1546 1547 1548 1549 1551 1552 1553 1554 1555 1555 1556 1556 1557 1557 1559 1560 1559 1560 1560 1560 1561 1561 1561 1561 1560 1560 1560 1560 1559 1559 1558 1558 1556 1554
1510 1515 1517 1521 1534 1537 1540 1544 1547 1547 1547 1547 1548 1549 1550 1552 1552 1553 1554 1554 1554 1555 1555 1556 1558 1558 1558 1558 1558 1559 1559 1560 1560 1559 1558 1558 1558 1557 1556 1555 1554 1554 1554
1510 1513 1517 1524 1527 1531 1537 1541 1545 1545 1546 1546 1546 1547 1548 1549 1550 1550 1551 1552 1553 1553 1553 1554 1555 1556 1557 1557 1557 1557 1557 1557 1558 1557 1556 1555 1555 1554 1553 1551 1550 1551 1551
1507 1511 1512 1516 1522 1529 1532 1535 1538 1539 1541 1543 1543 1544 1545 1546 1547 1549 1549 1550 1550 1550 1551 1551 1552 1553 1554 1555 1555 1555 1555 1554 1553 1553 1552 1551 1550 1549 1548 1548 1547 1547 1547
1505 1508 1515 1518 1522 1526 1527 1530 1534 1535 1533 1538 1539 1540 1543 1544 1544 1545 1545 1547 1547 1547 1548 1549 1550 1551 1552 1552 1552 1552 1551 1551 1549 1548 1547 1546 1545 1543 1543 1543 1543 1543 1543
1505 1511 1512 1517 1520 1523 1524 1525 1526 1526 1528 1532 1535 1537 1538 1540 1541 1542 1542 1543 1544 1545 1546 1547 1548 1548 1549 1548 1548 1548 1547 1546 1545 1543 1541 1540 1539 1538 1538 1538 1538 1539 1539
1503 1506 1509 1513 1514 1516 1516 1518 1519 1523 1525 1529 1531 1534 1535 1536 1537 1538 1539 1541 1542 1543 1544 1545 1545 1545 1545 1546 1544 1544 1541 1540 1539 1537 1537 1536 1535 1534 1534 1535 1535 1536 1536
1499 1503 1506 1509 1510 1513 1514 1517 1519 1521 1524 1525 1526 1528 1530 1530 1531 1533 1535 1537 1539 1542 1542 1542 1542 1541 1542 1541 1542 1542 1539 1536 1535 1534 1533 1533 1532 1531 1531 1531 1532 1532 1533
1497 1500 1503 1508 1510 1511 1514 1515 1517 1520 1522 1523 1524 1524 1527 1527 1529 1530 1530 1532 1536 1539 1539 1539 1537 1536 1535 1536 1536 1535 1535 1535 1534 1531 1529 1529 1529 1527 1528 1528 1528 1528 1529
1495 1498 1501 1506 1508 1508 1510 1511 1513 1515 1517 1519 1521 1519 1521 1523 1525 1527 1528 1527 1533 1535 1535 1534 1532 1531 1530 1531 1531 1530 1528 1528 1528 1528 1524 1524 1524 1524 1524 1524 1525 1524 1525
1489 1494 1497 1501 1503 1505 1506 1509 1509 1509 1513 1513 1514 1514 1514 1519 1523 1525 1527 1528 1528 1529 1530 1530 1529 1527 1526 1526 1525 1525 1524 1524 1523 1524 1521 1521 1520 1518 1518 1519 1520 1519 1520